TimeCDT,TemperatureF,Dew PointF,Humidity,Sea Level PressureIn,VisibilityMPH,Wind Direction,Wind SpeedMPH,Gust SpeedMPH,PrecipitationIn,Events,Conditions,WindDirDegrees,DateUTC
12:13 AM,50.0,46.4,87,29.60,10.0,Calm,Calm,-,N/A,,Mostly Cloudy,0,2013-06-01 05:13:00
12:33 AM,51.8,46.4,82,29.59,10.0,Calm,Calm,-,N/A,,Overcast,0,2013-06-01 05:33:00
12:53 AM,51.8,46.4,82,29.60,10.0,Calm,Calm,-,N/A,,Mostly Cloudy,0,2013-06-01 05:53:00
1:13 AM,51.8,46.4,82,29.59,10.0,Calm,Calm,-,0.01,,Mostly Cloudy,0,2013-06-01 06:13:00
1:33 AM,51.8,46.4,82,29.59,10.0,Calm,Calm,-,0.01,,Overcast,0,2013-06-01 06:33:00
1:53 AM,51.8,46.4,82,29.59,10.0,Calm,Calm,-,N/A,,Overcast,0,2013-06-01 06:53:00
2:13 AM,51.8,46.4,82,29.60,10.0,Calm,Calm,-,N/A,,Overcast,0,2013-06-01 07:13:00
2:33 AM,51.8,46.4,82,29.59,10.0,Calm,Calm,-,N/A,,Overcast,0,2013-06-01 07:33:00
2:53 AM,51.8,46.4,82,29.59,10.0,Calm,Calm,-,N/A,,Mostly Cloudy,0,2013-06-01 07:53:00
3:13 AM,50.0,44.6,82,29.60,10.0,Calm,Calm,-,N/A,,Scattered Clouds,0,2013-06-01 08:13:00
3:33 AM,48.2,44.6,87,29.59,10.0,Calm,Calm,-,N/A,,Scattered Clouds,0,2013-06-01 08:33:00
3:53 AM,48.2,44.6,87,29.59,10.0,Calm,Calm,-,N/A,,Scattered Clouds,0,2013-06-01 08:53:00
4:13 AM,48.2,44.6,87,29.58,10.0,Calm,Calm,-,N/A,,Overcast,0,2013-06-01 09:13:00
4:33 AM,48.2,44.6,87,29.59,10.0,Calm,Calm,-,N/A,,Overcast,0,2013-06-01 09:33:00
4:53 AM,48.2,46.4,93,29.58,10.0,Calm,Calm,-,N/A,,Overcast,0,2013-06-01 09:53:00
5:13 AM,50.0,46.4,87,29.59,10.0,Calm,Calm,-,N/A,,Overcast,0,2013-06-01 10:13:00
5:33 AM,50.0,46.4,87,29.59,10.0,Calm,Calm,-,N/A,,Overcast,0,2013-06-01 10:33:00
5:53 AM,50.0,46.4,87,29.59,10.0,Calm,Calm,-,N/A,,Scattered Clouds,0,2013-06-01 10:53:00
6:13 AM,50.0,46.4,87,29.59,10.0,Calm,Calm,-,N/A,,Scattered Clouds,0,2013-06-01 11:13:00
6:33 AM,51.8,46.4,82,29.60,10.0,Calm,Calm,-,N/A,,Scattered Clouds,0,2013-06-01 11:33:00
6:53 AM,51.8,46.4,82,29.61,10.0,Calm,Calm,-,N/A,,Scattered Clouds,0,2013-06-01 11:53:00
7:13 AM,51.8,48.2,88,29.61,10.0,Calm,Calm,-,N/A,,Scattered Clouds,0,2013-06-01 12:13:00
7:33 AM,53.6,48.2,82,29.62,10.0,Calm,Calm,-,N/A,,Scattered Clouds,0,2013-06-01 12:33:00
7:53 AM,51.8,46.4,82,29.62,10.0,East,4.6,-,N/A,,Scattered Clouds,90,2013-06-01 12:53:00
8:13 AM,48.2,44.6,87,29.63,2.5,Calm,Calm,-,N/A,,Mostly Cloudy,0,2013-06-01 13:13:00
8:33 AM,51.8,46.4,82,29.63,10.0,Calm,Calm,-,N/A,,Overcast,0,2013-06-01 13:33:00
8:53 AM,51.8,46.4,82,29.63,10.0,NE,6.9,-,N/A,,Overcast,40,2013-06-01 13:53:00
9:13 AM,53.6,46.4,77,29.63,10.0,NE,11.5,-,N/A,,Mostly Cloudy,40,2013-06-01 14:13:00
9:33 AM,53.6,46.4,77,29.65,10.0,NNE,8.1,-,N/A,,Overcast,30,2013-06-01 14:33:00
9:53 AM,51.8,46.4,82,29.65,10.0,Calm,Calm,-,N/A,,Overcast,0,2013-06-01 14:53:00
10:13 AM,53.6,46.4,77,29.65,10.0,Calm,Calm,-,N/A,,Overcast,0,2013-06-01 15:13:00
10:33 AM,53.6,46.4,77,29.65,10.0,Calm,Calm,-,N/A,,Overcast,0,2013-06-01 15:33:00
10:53 AM,55.4,46.4,72,29.66,10.0,East,5.8,-,N/A,,Mostly Cloudy,90,2013-06-01 15:53:00
11:13 AM,53.6,46.4,77,29.67,10.0,Calm,Calm,-,N/A,,Mostly Cloudy,0,2013-06-01 16:13:00
11:33 AM,53.6,46.4,77,29.67,10.0,Calm,Calm,-,N/A,Rain,Light Rain,0,2013-06-01 16:33:00
11:53 AM,51.8,46.4,82,29.68,2.5,Calm,Calm,-,N/A,,Light Drizzle,0,2013-06-01 16:53:00
12:13 PM,50.0,46.4,87,29.68,3.0,East,4.6,-,N/A,,Overcast,90,2013-06-01 17:13:00
12:33 PM,50.0,46.4,87,29.68,4.0,Calm,Calm,-,N/A,Rain,Light Rain,0,2013-06-01 17:33:00
12:53 PM,50.0,46.4,87,29.69,4.0,Calm,Calm,-,N/A,,Light Drizzle,0,2013-06-01 17:53:00
1:13 PM,50.0,46.4,87,29.69,3.0,Calm,Calm,-,N/A,,Light Drizzle,0,2013-06-01 18:13:00
1:33 PM,50.0,46.4,87,29.69,2.0,Calm,Calm,-,N/A,,Light Drizzle,0,2013-06-01 18:33:00
1:53 PM,50.0,44.6,82,29.70,5.0,North,6.9,-,N/A,,Drizzle,350,2013-06-01 18:53:00
2:13 PM,48.2,44.6,87,29.71,1.8,Calm,Calm,-,N/A,,Drizzle,0,2013-06-01 19:13:00
2:33 PM,48.2,42.8,82,29.72,2.0,Calm,Calm,-,N/A,,Drizzle,0,2013-06-01 19:33:00
2:53 PM,48.2,42.8,82,29.73,2.0,Calm,Calm,-,N/A,Rain,Light Rain,0,2013-06-01 19:53:00
3:13 PM,46.4,41.0,81,29.74,2.5,Calm,Calm,-,N/A,Rain,Rain,0,2013-06-01 20:13:00
3:33 PM,46.4,41.0,81,29.74,5.0,North,3.5,-,N/A,,Light Drizzle,360,2013-06-01 20:33:00
3:53 PM,46.4,41.0,81,29.75,10.0,Calm,Calm,-,N/A,,Mostly Cloudy,0,2013-06-01 20:53:00
4:13 PM,46.4,39.2,76,29.76,10.0,Calm,Calm,-,N/A,,Mostly Cloudy,0,2013-06-01 21:13:00
4:33 PM,44.6,39.2,81,29.77,7.0,Calm,Calm,-,N/A,Rain,Light Rain,0,2013-06-01 21:33:00
4:53 PM,44.6,39.2,81,29.77,7.0,Calm,Calm,-,N/A,Rain,Light Rain,0,2013-06-01 21:53:00
5:13 PM,44.6,37.4,76,29.78,7.0,North,6.9,16.1,N/A,,Light Drizzle,360,2013-06-01 22:13:00
5:33 PM,44.6,37.4,76,29.80,7.0,Calm,Calm,-,N/A,Rain,Rain,0,2013-06-01 22:33:00
5:53 PM,44.6,37.4,76,29.80,10.0,Calm,Calm,-,N/A,Rain,Rain,0,2013-06-01 22:53:00
6:13 PM,44.6,37.4,76,29.81,7.0,Calm,Calm,-,N/A,,Drizzle,0,2013-06-01 23:13:00
6:33 PM,44.6,37.4,76,29.82,10.0,Calm,Calm,-,N/A,Rain,Light Rain,0,2013-06-01 23:33:00
6:53 PM,44.6,37.4,76,29.83,10.0,Calm,Calm,-,N/A,,Drizzle,0,2013-06-01 23:53:00
7:13 PM,44.6,39.2,81,29.84,10.0,Calm,Calm,-,N/A,,Drizzle,0,2013-06-02 00:13:00
7:33 PM,44.6,39.2,81,29.85,10.0,Calm,Calm,-,N/A,,Scattered Clouds,0,2013-06-02 00:33:00
7:53 PM,44.6,39.2,81,29.85,5.0,Calm,Calm,-,N/A,,Haze,0,2013-06-02 00:53:00
8:13 PM,44.6,39.2,81,29.86,4.0,Calm,Calm,-,N/A,,Haze,0,2013-06-02 01:13:00
8:33 PM,44.6,39.2,81,29.87,10.0,Calm,Calm,-,N/A,,Mostly Cloudy,0,2013-06-02 01:33:00
8:53 PM,42.8,39.2,87,29.88,10.0,Calm,Calm,-,N/A,,Scattered Clouds,0,2013-06-02 01:53:00
9:13 PM,42.8,37.4,81,29.89,10.0,North,4.6,-,N/A,,Mostly Cloudy,10,2013-06-02 02:13:00
9:33 PM,42.8,37.4,81,29.89,10.0,Calm,Calm,-,N/A,,Overcast,0,2013-06-02 02:33:00
9:53 PM,42.8,37.4,81,29.90,10.0,Calm,Calm,-,N/A,,Overcast,0,2013-06-02 02:53:00
10:13 PM,42.8,37.4,81,29.90,10.0,Calm,Calm,-,N/A,,Overcast,0,2013-06-02 03:13:00
10:33 PM,42.8,37.4,81,29.91,10.0,Calm,Calm,-,N/A,,Overcast,0,2013-06-02 03:33:00
10:53 PM,42.8,37.4,81,29.90,10.0,Calm,Calm,-,N/A,,Overcast,0,2013-06-02 03:53:00
11:13 PM,42.8,37.4,81,29.91,10.0,Calm,Calm,-,N/A,,Overcast,0,2013-06-02 04:13:00
11:33 PM,42.8,37.4,81,29.91,10.0,Calm,Calm,-,0.01,,Mostly Cloudy,0,2013-06-02 04:33:00
11:53 PM,42.8,35.6,76,29.92,10.0,North,5.8,-,N/A,,Clear,360,2013-06-02 04:53:00